Location: Helsinki
(60.1699°N, 24.9384°E)
Time: 22:45:13
(UTC+02:00)

Altair - Pass Details

Date: 31 October 2020
Orbit: 1502 x 1682 km, 47.2° (Epoch: 25 November)

Event Time Altitude Azimuth Distance (km) Brightness Sun altitude
Rises 08:46:12 0° 263° (W) 4,699 9.7 5.7°
Reaches altitude 10° 08:49:32 10° 255° (WSW) 3,738 9.2 6.0°
Maximum altitude 08:57:44 35° 195° (SSW) 2,365 9.0 6.8°
Drops below altitude 10° 09:06:13 10° 135° (SE) 3,859 13.2 7.5°
Sets 09:09:44 0° 127° (SE) 4,869 12.2 7.8°
